Погода в Ароне

Испания     28°06′00″N   16°40′57″W
темп.,
°C
ветер,
м/с
пор.,
м/с
влажн.,
%
обл.,
%
осадки,
мм/ч
давл.,
гПа
погр.,
м
13 июня, вс
вс1301:00+21юв34795 0.0 1020191
04:00+21сз13745 0.0 1019117
07:00+20вюв34755 0.0 1019232
10:00+21в33725 0.0 1021255
13:00+22юв33715 0.0 1021275
16:00+22юв5571100 0.0 1020347
19:00+23ююз03695 0.0 1020192
22:00+21юв35790 0.0 1021244
14 июня, пн
пн1401:00+21в33764 0.0 1021142
04:00+20ююв1280100 0.0 1019188
07:00+20ююв2278100 0.0 1020289
10:00+21ююв0277100 0.0 1022201
13:00+22юв4373100 0.0 1022441
16:00+22ююв327495 0.0 1019303
19:00+21ююв3380100 0.0 1019295
22:00+21вюв358058 0.0 1020174
15 июня, вт
вт1501:00+21вюв337826 0.0 1020186
04:00+20вюв337918 0.0 1018314
07:00+20вюв337830 0.0 1018255
10:00+20ююв22755 0.0 1019477
13:00+20ю32752 0.0 1019357
16:00+20ю127910 0.0 1018346
19:00+20з33775 0.0 1018316
22:00+20сз23817 0.0 1018244
16 июня, ср
ср1601:00+20вюв12800 0.0 1019324
04:00+20юз22790 0.0 1018274
07:00+20ссз22770 0.0 1017215
10:00+20ю33760 0.0 1018457
13:00+21з33770 0.0 1019308
16:00+20з217711 0.0 1018330
19:00+20зсз118124 0.0 1018301
22:00+20ююв118412 0.0 1019164
17 июня, чт
чт1701:00+20ююз23855 0.0 1019164
04:00+20ю34850 0.0 1018257
07:00+20юв338111 0.0 1018290
10:00+21ю337813 0.0 1019393
13:00+21юв54775 0.0 1019440
16:00+21юв34754 0.0 1018419
19:00+22юв44765 0.0 1018423
22:00+21ююв547916 0.0 1019281